Location: Corralito
(10.2667°N, 66.9500°W)
Time: 03:24:23
(UTC+00:00)

Haruka - Pass Details

Date: 01 December 2023
Orbit: 529 x 21178 km, 31.2° (Epoch: 21 February)

Event Time Altitude Azimuth Distance (km) Brightness Sun altitude
Rises 20:19:55 0° 300° (WNW) 8,227 8.7 22.3°
Reaches altitude 10° 20:23:35 10° 301° (WNW) 8,159 8.7 21.5°
Maximum altitude 21:31:48 80° 237° (WSW) 16,278 10.0 6.4°
Drops below altitude 10° 01:31:37 10° 143° (SE) 11,144 8.7 -48.8°
Sets 01:38:53 0° 136° (SE) 10,466 8.6 -50.4°
